When you browse on this site, cookies collect data to enhance your experience and personalize the content and advertising you see.
Visit our Privacy Policy to learn more. By continuing to use the site, you agree to this use of cookies and data.
  • In United Kingdom
  • List of Countries
  • For 7 days
  • Water Temperature
  • Satellite Maps
  • Weather Map
  • Weather Widgets
  • user-avatar
    Login

    Hourly Weather Goiania

    Today, 20 January, Sunday

    Time Temperature Precipitation Wind Pressure Humidity
    00:00 +24°C° 1.2 mm 1 mps 699 mmHg 88%
    01:00 +24°C° 0.4 mm 1 mps 699 mmHg 87%
    02:00 +24°C° 0.4 mm 1 mps 699 mmHg 85%
    03:00 +21°C° 0.4 mm 0 mps 699 mmHg 84%
    04:00 +23°C° 0.1 mm 1 mps 699 mmHg 85%
    05:00 +23°C° 0.1 mm 1 mps 699 mmHg 86%
    06:00 +22°C° 0.1 mm 1 mps 699 mmHg 86%
    07:00 +24°C° 0.1 mm 1 mps 699 mmHg 80%
    08:00 +26°C° 0.1 mm 1 mps 700 mmHg 74%
    09:00 +28°C° 0.1 mm 1 mps 700 mmHg 68%
    10:00 +30°C° 0 mm 2 mps 700 mmHg 61%
    11:00 +31°C° 0 mm 2 mps 700 mmHg 54%
    12:00 +34°C° 0 mm 3 mps 700 mmHg 48%
    13:00 +33°C° 0 mm 3 mps 700 mmHg 50%
    14:00 +32°C° 0 mm 2 mps 699 mmHg 53%
    15:00 +32°C° 0 mm 2 mps 699 mmHg 56%
    16:00 +31°C° 0 mm 2 mps 699 mmHg 59%
    17:00 +30°C° 0 mm 2 mps 698 mmHg 63%
    18:00 +30°C° 0 mm 2 mps 698 mmHg 67%
    19:00 +28°C° 0 mm 2 mps 698 mmHg 69%
    20:00 +27°C° 0 mm 1 mps 699 mmHg 72%
    21:00 +26°C° 0 mm 1 mps 699 mmHg 74%
    22:00 +25°C° 0 mm 1 mps 699 mmHg 75%
    23:00 +23°C° 0 mm 0 mps 699 mmHg 75%

    Tomorrow, 21 January, Monday

    Time Temperature Precipitation Wind Pressure Humidity
    00:00 +23°C° 0 mm 0 mps 700 mmHg 76%
    01:00 +22°C° 0 mm 0 mps 699 mmHg 77%
    02:00 +24°C° 0 mm 1 mps 699 mmHg 79%
    03:00 +24°C° 0 mm 1 mps 699 mmHg 80%
    04:00 +24°C° 0 mm 1 mps 699 mmHg 82%
    05:00 +23°C° 0 mm 1 mps 699 mmHg 83%
    06:00 +23°C° 0 mm 1 mps 699 mmHg 85%
    07:00 +25°C° 0 mm 2 mps 700 mmHg 77%
    08:00 +27°C° 0 mm 2 mps 701 mmHg 69%
    09:00 +29°C° 0 mm 2 mps 701 mmHg 61%
    10:00 +31°C° 0 mm 3 mps 701 mmHg 55%
    11:00 +33°C° 0 mm 3 mps 701 mmHg 49%
    12:00 +35°C° 0 mm 3 mps 701 mmHg 42%
    13:00 +34°C° 0 mm 2 mps 701 mmHg 44%
    14:00 +34°C° 0 mm 2 mps 700 mmHg 45%
    15:00 +33°C° 0 mm 1 mps 700 mmHg 46%
    16:00 +33°C° 0 mm 1 mps 699 mmHg 50%
    17:00 +32°C° 0 mm 1 mps 699 mmHg 54%
    18:00 +32°C° 0 mm 1 mps 699 mmHg 57%
    19:00 +28°C° 0 mm 0 mps 699 mmHg 61%
    20:00 +26°C° 0 mm 0 mps 699 mmHg 64%
    21:00 +24°C° 0 mm 0 mps 699 mmHg 68%
    22:00 +24°C° 0 mm 0 mps 700 mmHg 69%
    23:00 +24°C° 0 mm 0 mps 700 mmHg 70%

    Day after tomorrow, 22 January, Tuesday

    Time Temperature Precipitation Wind Pressure Humidity
    00:00 +25°C° 0 mm 1 mps 700 mmHg 71%
    01:00 +25°C° 0 mm 1 mps 700 mmHg 70%
    02:00 +24°C° 0 mm 1 mps 699 mmHg 69%
    03:00 +24°C° 0 mm 1 mps 699 mmHg 68%
    04:00 +23°C° 0 mm 2 mps 699 mmHg 68%
    05:00 +23°C° 0 mm 2 mps 699 mmHg 68%
    06:00 +23°C° 0 mm 2 mps 699 mmHg 67%
    07:00 +25°C° 0 mm 2 mps 700 mmHg 63%
    08:00 +27°C° 0 mm 2 mps 701 mmHg 59%
    09:00 +29°C° 0 mm 2 mps 701 mmHg 55%
    10:00 +31°C° 0 mm 2 mps 701 mmHg 50%
    11:00 +32°C° 0 mm 2 mps 701 mmHg 44%
    12:00 +35°C° 0 mm 2 mps 701 mmHg 39%
    13:00 +35°C° 0 mm 2 mps 701 mmHg 40%
    14:00 +34°C° 0 mm 1 mps 700 mmHg 41%
    15:00 +34°C° 0 mm 1 mps 699 mmHg 43%
    16:00 +32°C° 0 mm 1 mps 699 mmHg 48%
    17:00 +31°C° 0 mm 2 mps 699 mmHg 53%
    18:00 +30°C° 0 mm 2 mps 698 mmHg 59%
    19:00 +29°C° 0 mm 2 mps 699 mmHg 62%
    20:00 +28°C° 0 mm 2 mps 699 mmHg 65%
    21:00 +27°C° 0 mm 2 mps 699 mmHg 67%
    22:00 +26°C° 0.4 mm 2 mps 700 mmHg 71%
    23:00 +26°C° 0.4 mm 2 mps 700 mmHg 74%

    23 January, Wednesday

    Time Temperature Precipitation Wind Pressure Humidity
    00:00 +25°C° 0.4 mm 2 mps 700 mmHg 77%
    01:00 +25°C° 0.1 mm 2 mps 699 mmHg 79%
    02:00 +24°C° 0.1 mm 2 mps 699 mmHg 81%
    03:00 +24°C° 0.1 mm 2 mps 698 mmHg 82%
    04:00 +24°C° 0 mm 2 mps 699 mmHg 82%
    05:00 +24°C° 0 mm 2 mps 699 mmHg 82%
    06:00 +23°C° 0 mm 2 mps 699 mmHg 82%
    07:00 +25°C° 0 mm 3 mps 700 mmHg 74%
    08:00 +27°C° 0 mm 3 mps 700 mmHg 66%
    09:00 +29°C° 0 mm 3 mps 701 mmHg 58%
    10:00 +31°C° 0 mm 3 mps 701 mmHg 52%
    11:00 +33°C° 0 mm 3 mps 701 mmHg 47%
    12:00 +34°C° 0 mm 3 mps 701 mmHg 41%
    13:00 +34°C° 0 mm 2 mps 700 mmHg 44%
    14:00 +34°C° 0 mm 2 mps 700 mmHg 46%
    15:00 +32°C° 0 mm 1 mps 699 mmHg 49%
    16:00 +32°C° 0 mm 1 mps 699 mmHg 51%
    17:00 +31°C° 0 mm 1 mps 698 mmHg 53%
    18:00 +30°C° 0 mm 1 mps 698 mmHg 55%
    19:00 +29°C° 0 mm 1 mps 698 mmHg 58%
    20:00 +27°C° 0 mm 1 mps 698 mmHg 61%
    21:00 +26°C° 0 mm 1 mps 699 mmHg 64%
    22:00 +25°C° 0 mm 1 mps 699 mmHg 65%
    23:00 +25°C° 0 mm 1 mps 699 mmHg 67%

    24 January, Thursday

    Time Temperature Precipitation Wind Pressure Humidity
    00:00 +24°C° 0 mm 2 mps 699 mmHg 69%
    01:00 +24°C° 0 mm 2 mps 698 mmHg 70%
    02:00 +24°C° 0 mm 2 mps 698 mmHg 72%
    03:00 +23°C° 0 mm 2 mps 698 mmHg 73%
    04:00 +23°C° 0 mm 2 mps 698 mmHg 74%
    05:00 +23°C° 0 mm 2 mps 698 mmHg 74%
    06:00 +23°C° 0 mm 2 mps 698 mmHg 74%
    07:00 +25°C° 0 mm 3 mps 699 mmHg 68%
    08:00 +27°C° 0 mm 3 mps 700 mmHg 62%
    09:00 +29°C° 0 mm 4 mps 700 mmHg 56%
    10:00 +30°C° 0 mm 4 mps 700 mmHg 50%
    11:00 +33°C° 0 mm 3 mps 700 mmHg 45%
    12:00 +34°C° 0 mm 3 mps 700 mmHg 40%
    13:00 +35°C° 0 mm 3 mps 699 mmHg 38%
    14:00 +36°C° 0 mm 2 mps 699 mmHg 37%
    15:00 +36°C° 0 mm 2 mps 698 mmHg 35%
    16:00 +34°C° 0 mm 1 mps 698 mmHg 40%
    17:00 +32°C° 0 mm 1 mps 697 mmHg 45%
    18:00 +31°C° 0 mm 1 mps 697 mmHg 50%
    19:00 +30°C° 0 mm 1 mps 698 mmHg 51%
    20:00 +29°C° 0 mm 1 mps 698 mmHg 52%
    21:00 +28°C° 0 mm 1 mps 698 mmHg 53%
    22:00 +27°C° 0 mm 1 mps 698 mmHg 56%
    23:00 +26°C° 0 mm 1 mps 698 mmHg 58%

    25 January, Friday

    Time Temperature Precipitation Wind Pressure Humidity
    00:00 +25°C° 0 mm 1 mps 698 mmHg 60%
    01:00 +25°C° 0 mm 1 mps 698 mmHg 61%
    02:00 +24°C° 0 mm 1 mps 697 mmHg 63%
    03:00 +24°C° 0 mm 1 mps 697 mmHg 64%
    04:00 +24°C° 0 mm 2 mps 697 mmHg 66%
    05:00 +23°C° 0 mm 2 mps 697 mmHg 69%
    06:00 +23°C° 0 mm 2 mps 697 mmHg 71%
    07:00 +25°C° 0 mm 3 mps 698 mmHg 66%
    08:00 +27°C° 0 mm 3 mps 699 mmHg 61%
    09:00 +30°C° 0 mm 3 mps 699 mmHg 56%
    10:00 +31°C° 0 mm 3 mps 699 mmHg 51%
    11:00 +33°C° 0 mm 3 mps 699 mmHg 47%
    12:00 +35°C° 0 mm 2 mps 699 mmHg 42%
    13:00 +34°C° 0 mm 2 mps 699 mmHg 44%
    14:00 +33°C° 0 mm 1 mps 698 mmHg 46%
    15:00 +33°C° 0 mm 1 mps 698 mmHg 47%
    16:00 +32°C° 0 mm 1 mps 698 mmHg 50%
    17:00 +31°C° 0 mm 1 mps 697 mmHg 53%
    18:00 +31°C° 0 mm 1 mps 697 mmHg 56%
    19:00 +29°C° 0.2 mm 1 mps 698 mmHg 59%
    20:00 +28°C° 0.2 mm 1 mps 698 mmHg 63%
    21:00 +27°C° 0.2 mm 1 mps 698 mmHg 66%
    22:00 +26°C° 0.6 mm 1 mps 698 mmHg 70%
    23:00 +25°C° 0.6 mm 2 mps 698 mmHg 74%
    Show more